Hourly Data Report for November 07, 2016

PITT MEADOWS CS
BRITISH COLUMBIA

49°12'29.964" N
122°41'24.076" W
5.00 m
1106178
71775
WMM

Download Data

Hourly Data (November 2016)
Hourly Data Report for November 7, 2016
TIME
LST
Temp Definition
°C
Dew Point Definition
°C
Rel Hum Definition
%
Precip. Amount Definition
mm

Wind Dir Definition
10's deg

Wind Spd Definition
km/h
Visibility Definition
km
Stn Press Definition
kPa
Hmdx Definition


Wind Chill Definition


Weather Definition


00:00 9.9 8.8 93 0.1 36 3   101.66     LegendNANA
01:00 10.0 8.9 93 0.4 5 1   101.73     LegendNANA
02:00 10.0 9.0 93 1.0 2 13   101.66     LegendNANA
03:00 10.5 8.9 90 0.5 2 15   101.67     LegendNANA
04:00 10.4 8.9 91 0.3 5 11   101.71     LegendNANA
05:00 10.3 8.9 92 0.4 10 7   101.75     LegendNANA
06:00 9.7 8.9 95 0.1 7 6   101.76     LegendNANA
07:00 10.0 9.0 93 0.1 13 6   101.80     LegendNANA
08:00 10.2 9.1 93 0.0 11 3   101.88     LegendNANA
09:00 10.3 9.3 94 0.2 5 5   101.91     LegendNANA
10:00 12.1 10.0 87 0.0 5 9   101.91     LegendNANA
11:00 11.9 10.3 90 0.0 7 5   101.94     LegendNANA
12:00 12.0 10.5 90 0.0 19 2   101.99     LegendNANA
13:00 12.2 10.4 89 0.0 6 4   101.91     LegendNANA
14:00 11.7 10.0 89 0.0 3 11   101.94     LegendNANA
15:00 11.7 10.2 90 0.4 3 16   101.87     LegendNANA
16:00 12.5 10.1 86 0.1 2 20   101.77     LegendNANA
17:00 12.7 10.1 85 0.0 6 13   101.74     LegendNANA
18:00 11.9 10.5 91 0.0 2 4   101.77     LegendNANA
19:00 11.5 10.3 93 0.0 0 1   101.74     LegendNANA
20:00 12.6 10.1 85 0.0 5 13   101.76     LegendNANA
21:00 11.6 10.2 92 0.0 9 5   101.73     LegendNANA
22:00 11.7 10.3 91 0.0 0 1   101.77     LegendNANA
23:00 11.1 10.2 94 0.0 6 2   101.70     LegendNANA

Notes on Data Quality.

Legend

  • E = Estimated
  • M = Missing
  • NA = Not Available*
  • [empty] = Indicates an unobserved value
Date modified: